Starlink 3234

operational
NORAD ID: 50815 Int'l Des: 2022-001 Owner: SPXS Country: US Constellation: starlink
LEOCIRCULAR

About Starlink 3234

Description loading...

Live Position

Loading 3D Globe...

Upcoming Passes

Altitude History

Altitude vs Time

uPlot chart will show altitude changes over time

Two-Line Element Set

1 50815U 22001N 26066.33281133 .00000173 00000-0 28949-4 0 9995
2 50815 53.2175 179.7042 0001218 90.4887 269.6245 15.08827604230057
Epoch: Mar 7, 2026 • Age: 40 hours

Current Status

Altitude 544.9 km
Velocity 7.60 km/s
Sub-Earth Point 50.49°N, 120.86°W
Launch Date Jan 6, 2022
Age 4.1 years
Type internet

Technical Details

Classification Payload
Mass 297.00 kg
Dry Mass 275.00 kg
Total Mass 297.00 kg
Length 0.20 m
Diameter 2.80 m
Span 9.00 m
Shape Box + pan
Manufacturer SPXS
Bus Type Starlink
Phase Status In Orbit
Owner/State SPXS/US

Large Constellations

Loading constellations...